Time,TemperatureF,DewpointF,PressureIn,WindDirection,WindDirectionDegrees,WindSpeedMPH,WindSpeedGustMPH,Humidity,HourlyPrecipIn,Conditions,Clouds,dailyrainin,SoftwareType,DateUTC
2013-01-12 01:00:00,40.0,38.0,30.06,North,349,0.0,5.0,94,-99.99,,,-99.99,,2013-01-12 06:00:00,
2013-01-12 01:22:00,40.0,38.0,30.06,North,349,0.0,5.0,94,-99.99,,,-99.99,,2013-01-12 06:22:00,
2013-01-12 01:33:00,40.0,38.0,30.06,North,349,0.0,5.0,94,-99.99,,,-99.99,,2013-01-12 06:33:00,
2013-01-12 01:43:00,40.0,38.0,30.06,North,349,0.0,5.0,94,-99.99,,,-99.99,,2013-01-12 06:43:00,
2013-01-12 01:53:00,40.0,38.0,30.06,North,349,0.0,5.0,94,-99.99,,,-99.99,,2013-01-12 06:53:00,
2013-01-12 02:00:00,41.0,40.0,30.06,North,0,4.0,8.0,94,-99.99,,,-99.99,,2013-01-12 07:00:00,
2013-01-12 02:22:00,41.0,40.0,30.06,North,0,4.0,8.0,94,-99.99,,,-99.99,,2013-01-12 07:22:00,
2013-01-12 02:32:00,41.0,40.0,30.06,North,0,4.0,8.0,94,-99.99,,,-99.99,,2013-01-12 07:32:00,
2013-01-12 02:42:00,41.0,40.0,30.06,North,0,4.0,8.0,94,-99.99,,,-99.99,,2013-01-12 07:42:00,
2013-01-12 02:53:00,41.0,40.0,30.06,North,0,4.0,8.0,94,-99.99,,,-99.99,,2013-01-12 07:53:00,
2013-01-12 03:00:00,42.0,40.0,30.09,NNE,22,5.0,8.0,94,-99.99,,,-99.99,,2013-01-12 08:00:00,
2013-01-12 03:22:00,42.0,40.0,30.09,NNE,22,5.0,8.0,94,-99.99,,,-99.99,,2013-01-12 08:22:00,
2013-01-12 03:32:00,42.0,40.0,30.09,NNE,22,5.0,8.0,94,-99.99,,,-99.99,,2013-01-12 08:32:00,
2013-01-12 03:42:00,42.0,40.0,30.09,NNE,22,5.0,8.0,94,-99.99,,,-99.99,,2013-01-12 08:42:00,
2013-01-12 03:53:00,42.0,40.0,30.09,NNE,22,5.0,8.0,94,-99.99,,,-99.99,,2013-01-12 08:53:00,
2013-01-12 04:00:00,42.0,41.0,30.06,NNE,23,5.0,9.0,94,-99.99,,,-99.99,,2013-01-12 09:00:00,
2013-01-12 04:22:00,42.0,41.0,30.06,NNE,23,5.0,9.0,94,-99.99,,,-99.99,,2013-01-12 09:22:00,
2013-01-12 04:33:00,42.0,41.0,30.06,NNE,23,5.0,9.0,94,-99.99,,,-99.99,,2013-01-12 09:33:00,
2013-01-12 04:43:00,42.0,41.0,30.06,NNE,23,5.0,9.0,94,-99.99,,,-99.99,,2013-01-12 09:43:00,
2013-01-12 04:53:00,42.0,41.0,30.06,NNE,23,5.0,9.0,94,-99.99,,,-99.99,,2013-01-12 09:53:00,
2013-01-12 05:00:00,42.0,41.0,30.06,NNE,29,2.0,10.0,94,-99.99,,,-99.99,,2013-01-12 10:00:00,
2013-01-12 05:22:00,42.0,41.0,30.06,NNE,29,2.0,10.0,94,-99.99,,,-99.99,,2013-01-12 10:22:00,
2013-01-12 05:32:00,42.0,41.0,30.06,NNE,29,2.0,10.0,94,-99.99,,,-99.99,,2013-01-12 10:32:00,
2013-01-12 05:43:00,42.0,41.0,30.06,NNE,29,2.0,10.0,94,-99.99,,,-99.99,,2013-01-12 10:43:00,
2013-01-12 05:52:00,42.0,41.0,30.06,NNE,29,2.0,10.0,94,-99.99,,,-99.99,,2013-01-12 10:52:00,
2013-01-12 06:00:00,42.0,41.0,30.09,NE,51,2.0,7.0,94,-99.99,,,-99.99,,2013-01-12 11:00:00,
2013-01-12 06:22:00,42.0,41.0,30.09,NE,51,2.0,7.0,94,-99.99,,,-99.99,,2013-01-12 11:22:00,
2013-01-12 06:33:00,42.0,41.0,30.09,NE,51,2.0,7.0,94,-99.99,,,-99.99,,2013-01-12 11:33:00,
2013-01-12 06:43:00,42.0,41.0,30.09,NE,51,2.0,7.0,94,-99.99,,,-99.99,,2013-01-12 11:43:00,
2013-01-12 06:53:00,42.0,41.0,30.09,NE,51,2.0,7.0,94,-99.99,,,-99.99,,2013-01-12 11:53:00,
2013-01-12 07:00:00,42.0,41.0,30.09,ENE,73,3.0,6.0,94,-99.99,,,-99.99,,2013-01-12 12:00:00,
2013-01-12 07:22:00,42.0,41.0,30.09,ENE,73,3.0,6.0,94,-99.99,,,-99.99,,2013-01-12 12:22:00,
2013-01-12 07:33:00,42.0,41.0,30.09,ENE,73,3.0,6.0,94,-99.99,,,-99.99,,2013-01-12 12:33:00,
2013-01-12 07:43:00,42.0,41.0,30.09,ENE,73,3.0,6.0,94,-99.99,,,-99.99,,2013-01-12 12:43:00,
2013-01-12 07:53:00,42.0,41.0,30.09,ENE,73,3.0,6.0,94,-99.99,,,-99.99,,2013-01-12 12:53:00,
2013-01-12 08:00:00,42.0,41.0,30.12,NNE,23,3.0,6.0,94,-99.99,,,-99.99,,2013-01-12 13:00:00,
2013-01-12 08:23:00,42.0,41.0,30.12,NNE,23,3.0,6.0,94,-99.99,,,-99.99,,2013-01-12 13:23:00,
2013-01-12 08:33:00,42.0,41.0,30.12,NNE,23,3.0,6.0,94,-99.99,,,-99.99,,2013-01-12 13:33:00,
2013-01-12 08:43:00,42.0,41.0,30.12,NNE,23,3.0,6.0,94,-99.99,,,-99.99,,2013-01-12 13:43:00,
2013-01-12 08:53:00,42.0,41.0,30.12,NNE,23,3.0,6.0,94,-99.99,,,-99.99,,2013-01-12 13:53:00,
2013-01-12 09:00:00,43.0,42.0,30.12,NNE,29,5.0,6.0,94,-99.99,,,-99.99,,2013-01-12 14:00:00,
2013-01-12 09:22:00,43.0,42.0,30.12,NNE,29,5.0,6.0,94,-99.99,,,-99.99,,2013-01-12 14:22:00,
2013-01-12 09:33:00,43.0,42.0,30.12,NNE,29,5.0,6.0,94,-99.99,,,-99.99,,2013-01-12 14:33:00,
2013-01-12 09:43:00,43.0,42.0,30.12,NNE,29,5.0,6.0,94,-99.99,,,-99.99,,2013-01-12 14:43:00,
2013-01-12 09:53:00,43.0,42.0,30.12,NNE,29,5.0,6.0,94,-99.99,,,-99.99,,2013-01-12 14:53:00,
2013-01-12 10:00:00,44.0,42.0,30.12,NE,44,4.0,6.0,92,-99.99,,,-99.99,,2013-01-12 15:00:00,
2013-01-12 10:23:00,44.0,42.0,30.12,NE,44,4.0,6.0,92,-99.99,,,-99.99,,2013-01-12 15:23:00,
2013-01-12 10:34:00,44.0,42.0,30.12,NE,44,4.0,6.0,92,-99.99,,,-99.99,,2013-01-12 15:34:00,
2013-01-12 10:43:00,44.0,42.0,30.12,NE,44,4.0,6.0,92,-99.99,,,-99.99,,2013-01-12 15:43:00,
2013-01-12 10:53:00,44.0,42.0,30.12,NE,44,4.0,6.0,92,-99.99,,,-99.99,,2013-01-12 15:53:00,
2013-01-12 11:00:00,45.0,42.0,30.12,NNW,345,0.0,5.0,91,-99.99,,,-99.99,,2013-01-12 16:00:00,
2013-01-12 11:23:00,45.0,42.0,30.12,NNW,345,0.0,5.0,91,-99.99,,,-99.99,,2013-01-12 16:23:00,
2013-01-12 11:33:00,45.0,42.0,30.12,NNW,345,0.0,5.0,91,-99.99,,,-99.99,,2013-01-12 16:33:00,
2013-01-12 11:43:00,45.0,42.0,30.12,NNW,345,0.0,5.0,91,-99.99,,,-99.99,,2013-01-12 16:43:00,
2013-01-12 11:53:00,45.0,42.0,30.12,NNW,345,0.0,5.0,91,-99.99,,,-99.99,,2013-01-12 16:53:00,
2013-01-12 12:00:00,45.0,43.0,30.12,NW,316,0.0,0.0,91,-99.99,,,-99.99,,2013-01-12 17:00:00,
2013-01-12 12:23:00,45.0,43.0,30.12,NW,316,0.0,0.0,91,-99.99,,,-99.99,,2013-01-12 17:23:00,
2013-01-12 12:33:00,45.0,43.0,30.12,NW,316,0.0,0.0,91,-99.99,,,-99.99,,2013-01-12 17:33:00,
2013-01-12 12:43:00,45.0,43.0,30.12,NW,316,0.0,0.0,91,-99.99,,,-99.99,,2013-01-12 17:43:00,
2013-01-12 12:53:00,45.0,43.0,30.12,NW,316,0.0,0.0,91,-99.99,,,-99.99,,2013-01-12 17:53:00,
2013-01-12 13:00:00,45.0,43.0,30.12,NW,311,2.0,5.0,91,-99.99,,,-99.99,,2013-01-12 18:00:00,
2013-01-12 13:23:00,45.0,43.0,30.12,NW,311,2.0,5.0,91,-99.99,,,-99.99,,2013-01-12 18:23:00,
2013-01-12 13:33:00,45.0,43.0,30.12,NW,311,2.0,5.0,91,-99.99,,,-99.99,,2013-01-12 18:33:00,
2013-01-12 13:43:00,45.0,43.0,30.12,NW,311,2.0,5.0,91,-99.99,,,-99.99,,2013-01-12 18:43:00,
2013-01-12 13:53:00,45.0,43.0,30.12,NW,311,2.0,5.0,91,-99.99,,,-99.99,,2013-01-12 18:53:00,
2013-01-12 14:00:00,45.0,43.0,30.12,South,185,0.0,4.0,91,-99.99,,,-99.99,,2013-01-12 19:00:00,
2013-01-12 14:23:00,45.0,43.0,30.12,South,185,0.0,4.0,91,-99.99,,,-99.99,,2013-01-12 19:23:00,
2013-01-12 14:33:00,45.0,43.0,30.12,South,185,0.0,4.0,91,-99.99,,,-99.99,,2013-01-12 19:33:00,
2013-01-12 14:43:00,45.0,43.0,30.12,South,185,0.0,4.0,91,-99.99,,,-99.99,,2013-01-12 19:43:00,
2013-01-12 14:53:00,45.0,43.0,30.12,South,185,0.0,4.0,91,-99.99,,,-99.99,,2013-01-12 19:53:00,
2013-01-12 15:00:00,45.0,43.0,30.12,North,351,1.0,4.0,91,-99.99,,,-99.99,,2013-01-12 20:00:00,
2013-01-12 15:22:00,45.0,43.0,30.12,North,351,1.0,4.0,91,-99.99,,,-99.99,,2013-01-12 20:22:00,
2013-01-12 15:33:00,45.0,43.0,30.12,North,351,1.0,4.0,91,-99.99,,,-99.99,,2013-01-12 20:33:00,
2013-01-12 15:43:00,45.0,43.0,30.12,North,351,1.0,4.0,91,-99.99,,,-99.99,,2013-01-12 20:43:00,
2013-01-12 15:53:00,45.0,43.0,30.12,North,351,1.0,4.0,91,-99.99,,,-99.99,,2013-01-12 20:53:00,
2013-01-12 16:00:00,44.0,42.0,30.12,NW,311,0.0,5.0,92,-99.99,,,-99.99,,2013-01-12 21:00:00,
2013-01-12 16:22:00,44.0,42.0,30.12,NW,311,0.0,5.0,92,-99.99,,,-99.99,,2013-01-12 21:22:00,
2013-01-12 16:33:00,44.0,42.0,30.12,NW,311,0.0,5.0,92,-99.99,,,-99.99,,2013-01-12 21:33:00,
2013-01-12 16:43:00,44.0,42.0,30.12,NW,311,0.0,5.0,92,-99.99,,,-99.99,,2013-01-12 21:43:00,
2013-01-12 16:53:00,44.0,42.0,30.12,NW,311,0.0,5.0,92,-99.99,,,-99.99,,2013-01-12 21:53:00,
2013-01-12 17:00:00,45.0,42.0,30.12,North,8,0.0,3.0,92,-99.99,,,-99.99,,2013-01-12 22:00:00,
2013-01-12 17:23:00,45.0,42.0,30.12,North,8,0.0,3.0,92,-99.99,,,-99.99,,2013-01-12 22:23:00,
2013-01-12 17:33:00,45.0,42.0,30.12,North,8,0.0,3.0,92,-99.99,,,-99.99,,2013-01-12 22:33:00,
2013-01-12 17:43:00,45.0,42.0,30.12,North,8,0.0,3.0,92,-99.99,,,-99.99,,2013-01-12 22:43:00,
2013-01-12 17:53:00,45.0,42.0,30.12,North,8,0.0,3.0,92,-99.99,,,-99.99,,2013-01-12 22:53:00,
2013-01-12 18:00:00,44.0,42.0,30.15,ESE,102,0.0,3.0,93,-99.99,,,-99.99,,2013-01-12 23:00:00,
2013-01-12 18:23:00,44.0,42.0,30.15,ESE,102,0.0,3.0,93,-99.99,,,-99.99,,2013-01-12 23:23:00,
2013-01-12 18:33:00,44.0,42.0,30.15,ESE,102,0.0,3.0,93,-99.99,,,-99.99,,2013-01-12 23:33:00,
2013-01-12 18:43:00,44.0,42.0,30.15,ESE,102,0.0,3.0,93,-99.99,,,-99.99,,2013-01-12 23:43:00,
2013-01-12 18:53:00,44.0,42.0,30.15,ESE,102,0.0,3.0,93,-99.99,,,-99.99,,2013-01-12 23:53:00,
2013-01-12 19:00:00,44.0,42.0,30.12,ESE,106,0.0,4.0,93,-99.99,,,-99.99,,2013-01-13 00:00:00,
2013-01-12 19:23:00,44.0,42.0,30.12,ESE,106,0.0,4.0,93,-99.99,,,-99.99,,2013-01-13 00:23:00,
2013-01-12 19:33:00,44.0,42.0,30.12,ESE,106,0.0,4.0,93,-99.99,,,-99.99,,2013-01-13 00:33:00,
2013-01-12 19:43:00,44.0,42.0,30.12,ESE,106,0.0,4.0,93,-99.99,,,-99.99,,2013-01-13 00:43:00,
2013-01-12 19:53:00,44.0,42.0,30.12,ESE,106,0.0,4.0,93,-99.99,,,-99.99,,2013-01-13 00:53:00,
2013-01-12 20:00:00,44.0,42.0,30.12,SE,134,0.0,4.0,94,-99.99,,,-99.99,,2013-01-13 01:00:00,
2013-01-12 20:23:00,44.0,42.0,30.12,SE,134,0.0,4.0,94,-99.99,,,-99.99,,2013-01-13 01:23:00,
2013-01-12 20:33:00,44.0,42.0,30.12,SE,134,0.0,4.0,94,-99.99,,,-99.99,,2013-01-13 01:33:00,
2013-01-12 20:43:00,44.0,42.0,30.12,SE,134,0.0,4.0,94,-99.99,,,-99.99,,2013-01-13 01:43:00,
2013-01-12 20:53:00,44.0,42.0,30.12,SE,134,0.0,4.0,94,-99.99,,,-99.99,,2013-01-13 01:53:00,
2013-01-12 21:00:00,43.0,42.0,30.12,SE,145,0.0,4.0,94,-99.99,,,-99.99,,2013-01-13 02:00:00,
2013-01-12 21:23:00,43.0,42.0,30.12,SE,145,0.0,4.0,94,-99.99,,,-99.99,,2013-01-13 02:23:00,
2013-01-12 21:33:00,43.0,42.0,30.12,SE,145,0.0,4.0,94,-99.99,,,-99.99,,2013-01-13 02:33:00,
2013-01-12 21:43:00,43.0,42.0,30.12,SE,145,0.0,4.0,94,-99.99,,,-99.99,,2013-01-13 02:43:00,
2013-01-12 21:53:00,43.0,42.0,30.12,SE,145,0.0,4.0,94,-99.99,,,-99.99,,2013-01-13 02:53:00,
2013-01-12 22:00:00,43.0,42.0,30.12,East,95,0.0,0.0,94,-99.99,,,-99.99,,2013-01-13 03:00:00,
2013-01-12 22:22:00,43.0,42.0,30.12,East,95,0.0,0.0,94,-99.99,,,-99.99,,2013-01-13 03:22:00,
2013-01-12 22:33:00,43.0,42.0,30.12,East,95,0.0,0.0,94,-99.99,,,-99.99,,2013-01-13 03:33:00,
2013-01-12 22:43:00,43.0,42.0,30.12,East,95,0.0,0.0,94,-99.99,,,-99.99,,2013-01-13 03:43:00,
2013-01-12 22:53:00,43.0,42.0,30.12,East,95,0.0,0.0,94,-99.99,,,-99.99,,2013-01-13 03:53:00,
2013-01-12 23:00:00,43.0,42.0,30.12,East,83,0.0,0.0,94,-99.99,,,-99.99,,2013-01-13 04:00:00,
2013-01-12 23:22:00,43.0,42.0,30.12,East,83,0.0,0.0,94,-99.99,,,-99.99,,2013-01-13 04:22:00,
2013-01-12 23:33:00,43.0,42.0,30.12,East,83,0.0,0.0,94,-99.99,,,-99.99,,2013-01-13 04:33:00,
2013-01-12 23:43:00,43.0,42.0,30.12,East,83,0.0,0.0,94,-99.99,,,-99.99,,2013-01-13 04:43:00,
2013-01-12 23:53:00,43.0,42.0,30.12,East,83,0.0,0.0,94,-99.99,,,-99.99,,2013-01-13 04:53:00,